• In Austria
  • List of Countries
  • For 7 days
  • Water Temperature
  • Satellite Maps
  • Weather Map
  • News
  • Weather Widgets
  • user-avatar
    Login

    Hourly Weather Kalgoorlie

    Today, 24 May, Thursday

    Time Temperature Precipitation Wind Pressure Humidity
    00:00 +15°C° 0 mm 4 mps 733 mmHg 23%
    01:00 +15°C° 0 mm 4 mps 732 mmHg 25%
    02:00 +14°C° 0 mm 4 mps 732 mmHg 26%
    03:00 +14°C° 0 mm 4 mps 732 mmHg 28%
    04:00 +13°C° 0 mm 4 mps 732 mmHg 29%
    05:00 +13°C° 0 mm 4 mps 732 mmHg 30%
    06:00 +14°C° 0 mm 4 mps 732 mmHg 30%
    07:00 +14°C° 0 mm 5 mps 732 mmHg 29%
    08:00 +15°C° 0 mm 5 mps 732 mmHg 29%
    09:00 +17°C° 0 mm 6 mps 732 mmHg 25%
    10:00 +21°C° 0 mm 7 mps 731 mmHg 22%
    11:00 +24°C° 0 mm 7 mps 731 mmHg 18%
    12:00 +24°C° 0 mm 8 mps 730 mmHg 17%
    13:00 +26°C° 0 mm 8 mps 729 mmHg 16%
    14:00 +27°C° 0 mm 8 mps 729 mmHg 15%
    15:00 +26°C° 0 mm 7 mps 728 mmHg 16%
    16:00 +24°C° 0 mm 6 mps 728 mmHg 18%
    17:00 +23°C° 0 mm 5 mps 728 mmHg 19%
    18:00 +22°C° 0 mm 5 mps 728 mmHg 21%
    19:00 +22°C° 0 mm 6 mps 728 mmHg 22%
    20:00 +21°C° 0 mm 6 mps 728 mmHg 24%
    21:00 +21°C° 0 mm 7 mps 727 mmHg 24%
    22:00 +21°C° 0 mm 8 mps 727 mmHg 24%
    23:00 +19°C° 0 mm 9 mps 726 mmHg 24%

    Tomorrow, 25 May, Friday

    Time Temperature Precipitation Wind Pressure Humidity
    00:00 +19°C° 0 mm 9 mps 726 mmHg 24%
    01:00 +21°C° 0 mm 10 mps 726 mmHg 24%
    02:00 +21°C° 0 mm 10 mps 725 mmHg 23%
    03:00 +21°C° 0.1 mm 10 mps 725 mmHg 25%
    04:00 +21°C° 0.1 mm 10 mps 725 mmHg 26%
    05:00 +21°C° 0.1 mm 9 mps 724 mmHg 27%
    06:00 +21°C° 0.2 mm 9 mps 724 mmHg 29%
    07:00 +21°C° 0.2 mm 10 mps 724 mmHg 30%
    08:00 +21°C° 0.2 mm 10 mps 724 mmHg 31%
    09:00 +22°C° 0 mm 12 mps 724 mmHg 33%
    10:00 +23°C° 0 mm 14 mps 724 mmHg 35%
    11:00 +24°C° 0 mm 15 mps 724 mmHg 37%
    12:00 +23°C° 0.1 mm 15 mps 724 mmHg 43%
    13:00 +22°C° 0.1 mm 14 mps 723 mmHg 48%
    14:00 +20°C° 0.1 mm 13 mps 723 mmHg 54%
    15:00 +21°C° 0.2 mm 12 mps 723 mmHg 55%
    16:00 +19°C° 0.2 mm 10 mps 723 mmHg 56%
    17:00 +19°C° 0.2 mm 9 mps 724 mmHg 57%
    18:00 +18°C° 0.1 mm 8 mps 724 mmHg 57%
    19:00 +17°C° 0.1 mm 7 mps 724 mmHg 57%
    20:00 +17°C° 0.1 mm 6 mps 725 mmHg 57%
    21:00 +16°C° 0 mm 6 mps 725 mmHg 57%
    22:00 +16°C° 0 mm 6 mps 725 mmHg 57%
    23:00 +16°C° 0 mm 7 mps 725 mmHg 57%

    Day after tomorrow, 26 May, Saturday

    Time Temperature Precipitation Wind Pressure Humidity
    00:00 +15°C° 0 mm 7 mps 725 mmHg 57%
    01:00 +15°C° 0 mm 7 mps 725 mmHg 58%
    02:00 +15°C° 0 mm 8 mps 725 mmHg 58%
    03:00 +14°C° 0 mm 7 mps 725 mmHg 61%
    04:00 +14°C° 0 mm 7 mps 725 mmHg 64%
    05:00 +12°C° 0 mm 7 mps 726 mmHg 67%
    06:00 +12°C° 0 mm 8 mps 726 mmHg 68%
    07:00 +12°C° 0 mm 8 mps 727 mmHg 68%
    08:00 +12°C° 0 mm 9 mps 727 mmHg 69%
    09:00 +15°C° 0 mm 9 mps 728 mmHg 61%
    10:00 +16°C° 0 mm 9 mps 728 mmHg 53%
    11:00 +17°C° 0 mm 9 mps 728 mmHg 45%
    12:00 +17°C° 0 mm 9 mps 728 mmHg 46%
    13:00 +17°C° 0 mm 9 mps 728 mmHg 47%
    14:00 +17°C° 0 mm 9 mps 727 mmHg 48%
    15:00 +17°C° 0 mm 8 mps 728 mmHg 48%
    16:00 +17°C° 0 mm 7 mps 728 mmHg 49%
    17:00 +17°C° 0 mm 6 mps 728 mmHg 49%
    18:00 +16°C° 0 mm 5 mps 729 mmHg 53%
    19:00 +15°C° 0 mm 4 mps 729 mmHg 56%
    20:00 +14°C° 0 mm 3 mps 730 mmHg 59%
    21:00 +14°C° 0 mm 3 mps 730 mmHg 61%
    22:00 +13°C° 0 mm 3 mps 730 mmHg 63%
    23:00 +13°C° 0 mm 3 mps 730 mmHg 65%

    27 May, Sunday

    Time Temperature Precipitation Wind Pressure Humidity
    00:00 +12°C° 0 mm 3 mps 730 mmHg 68%
    01:00 +12°C° 0 mm 3 mps 730 mmHg 72%
    02:00 +11°C° 0 mm 4 mps 730 mmHg 75%
    03:00 +11°C° 0 mm 4 mps 730 mmHg 77%
    04:00 +11°C° 0 mm 4 mps 730 mmHg 80%
    05:00 +10°C° 0 mm 4 mps 730 mmHg 82%
    06:00 +11°C° 0 mm 4 mps 731 mmHg 79%
    07:00 +12°C° 0 mm 4 mps 731 mmHg 77%
    08:00 +12°C° 0 mm 5 mps 732 mmHg 74%
    09:00 +14°C° 0 mm 6 mps 732 mmHg 66%
    10:00 +16°C° 0 mm 6 mps 732 mmHg 58%
    11:00 +18°C° 0 mm 7 mps 732 mmHg 50%
    12:00 +20°C° 0 mm 7 mps 731 mmHg 49%
    13:00 +20°C° 0 mm 7 mps 730 mmHg 48%
    14:00 +21°C° 0 mm 8 mps 730 mmHg 47%
    15:00 +20°C° 0 mm 7 mps 730 mmHg 48%
    16:00 +20°C° 0 mm 6 mps 730 mmHg 50%
    17:00 +20°C° 0 mm 6 mps 730 mmHg 52%
    18:00 +19°C° 0 mm 5 mps 731 mmHg 55%
    19:00 +17°C° 0 mm 5 mps 731 mmHg 59%
    20:00 +17°C° 0 mm 4 mps 731 mmHg 62%
    21:00 +17°C° 0 mm 4 mps 732 mmHg 67%
    22:00 +15°C° 0 mm 5 mps 732 mmHg 71%
    23:00 +15°C° 0 mm 5 mps 732 mmHg 75%

    28 May, Monday

    Time Temperature Precipitation Wind Pressure Humidity
    00:00 +14°C° 0 mm 5 mps 732 mmHg 79%
    01:00 +14°C° 0 mm 5 mps 732 mmHg 83%
    02:00 +13°C° 0 mm 5 mps 732 mmHg 87%
    03:00 +12°C° 0 mm 5 mps 733 mmHg 88%
    04:00 +12°C° 0 mm 5 mps 733 mmHg 88%
    05:00 +10°C° 0 mm 5 mps 734 mmHg 89%
    06:00 +10°C° 0 mm 5 mps 734 mmHg 84%
    07:00 +10°C° 0 mm 5 mps 735 mmHg 79%
    08:00 +10°C° 0 mm 5 mps 735 mmHg 74%
    09:00 +13°C° 0 mm 5 mps 735 mmHg 61%
    10:00 +14°C° 0 mm 4 mps 735 mmHg 48%
    11:00 +15°C° 0 mm 4 mps 736 mmHg 35%
    12:00 +17°C° 0 mm 4 mps 735 mmHg 32%
    13:00 +18°C° 0 mm 4 mps 735 mmHg 29%
    14:00 +19°C° 0 mm 5 mps 735 mmHg 26%
    15:00 +18°C° 0 mm 4 mps 735 mmHg 29%
    16:00 +17°C° 0 mm 4 mps 735 mmHg 31%
    17:00 +17°C° 0 mm 3 mps 736 mmHg 33%
    18:00 +16°C° 0 mm 3 mps 736 mmHg 36%
    19:00 +14°C° 0 mm 3 mps 736 mmHg 39%
    20:00 +14°C° 0 mm 2 mps 737 mmHg 43%
    21:00 +14°C° 0 mm 2 mps 737 mmHg 46%
    22:00 +13°C° 0 mm 2 mps 737 mmHg 50%
    23:00 +13°C° 0 mm 2 mps 737 mmHg 54%

    29 May, Tuesday

    Time Temperature Precipitation Wind Pressure Humidity
    00:00 +12°C° 0 mm 2 mps 737 mmHg 57%
    01:00 +12°C° 0 mm 2 mps 737 mmHg 61%
    02:00 +11°C° 0 mm 1 mps 737 mmHg 65%
    03:00 +11°C° 0 mm 1 mps 737 mmHg 67%
    04:00 +10°C° 0 mm 1 mps 737 mmHg 70%
    05:00 +10°C° 0 mm 1 mps 737 mmHg 73%
    06:00 +11°C° 0 mm 1 mps 737 mmHg 69%
    07:00 +12°C° 0 mm 1 mps 737 mmHg 66%
    08:00 +12°C° 0 mm 1 mps 738 mmHg 62%
    09:00 +14°C° 0 mm 1 mps 738 mmHg 56%
    10:00 +15°C° 0 mm 1 mps 738 mmHg 50%
    11:00 +18°C° 0 mm 1 mps 737 mmHg 44%
    12:00 +19°C° 0 mm 1 mps 737 mmHg 40%
    13:00 +19°C° 0 mm 1 mps 736 mmHg 36%
    14:00 +20°C° 0 mm 1 mps 736 mmHg 32%
    15:00 +19°C° 0 mm 1 mps 736 mmHg 35%
    16:00 +16°C° 0 mm 0 mps 736 mmHg 38%
    17:00 +16°C° 0 mm 0 mps 736 mmHg 41%
    18:00 +16°C° 0 mm 1 mps 736 mmHg 41%
    19:00 +16°C° 0 mm 1 mps 736 mmHg 41%
    20:00 +15°C° 0 mm 1 mps 736 mmHg 41%
    21:00 +15°C° 0 mm 1 mps 736 mmHg 42%
    22:00 +14°C° 0 mm 2 mps 736 mmHg 42%
    23:00 +14°C° 0 mm 2 mps 736 mmHg 43%
    Show more